GW6717 Weather Reports


time (UTC)temp
C
wind
direction
speed
KPH
gust
KPH
rain 1hr
cm
rain 24hr
cm
rain mn
cm
humidity
%
barometer
mb
20260509212631 18 202 6.4 9.7 0.00 0.46 0.46 58 1007.1
20260509212127 19 196 4.8 6.4 0.00 0.46 0.46 58 1007.0
20260509211623 19 196 3.2 9.7 0.00 0.46 0.46 59 1007.1
20260509211120 19 338 4.8 6.4 0.00 0.46 0.46 58 1006.8
20260509210617 19 228 6.4 6.4 0.00 0.46 0.46 57 1007.2
20260509210114 18 216 1.6 4.8 0.00 0.46 0.46 61 1006.9
20260509205608 18 192 3.2 4.8 0.00 0.46 0.46 59 1007.0
20260509205103 18 33 1.6 3.2 0.00 0.46 0.46 59 1007.3
20260509204559 18 147 8.0 11.3 0.00 0.46 0.46 60 1007.4
20260509204056 18 202 3.2 6.4 0.00 0.46 0.46 61 1007.3
20260509203552 18 193 4.8 6.4 0.00 0.46 0.46 60 1007.4
20260509203051 18 355 3.2 3.2 0.00 0.46 0.46 60 1007.5
20260509202550 18 193 6.4 9.7 0.00 0.46 0.46 61 1007.4
20260509202046 18 171 3.2 3.2 0.00 0.46 0.46 62 1007.5
20260509201541 18 310 6.4 6.4 0.00 0.46 0.46 61 1007.5
20260509201040 17 201 6.4 9.7 0.00 0.46 0.46 63 1007.5
20260509200539 17 206 1.6 4.8 0.00 0.46 0.46 66 1007.6
20260509200036 17 27 3.2 4.8 0.00 0.46 0.46 65 1007.8
20260509195532 18 184 9.7 9.7 0.00 0.46 0.46 61 1007.9
20260509195032 18 212 4.8 4.8 0.00 0.46 0.46 64 1007.8
20260509194526 18 299 3.2 4.8 0.00 0.46 0.46 67 1007.9
20260509194024 18 203 6.4 6.4 0.00 0.46 0.46 66 1008.2
20260509193524 18 205 9.7 11.3 0.00 0.46 0.46 64 1008.0
20260509193022 17 206 4.8 6.4 0.00 0.46 0.46 68 1008.1
20260509192518 17 204 12.9 14.5 0.00 0.46 0.46 66 1008.1
20260509192013 17 204 8.0 9.7 0.00 0.46 0.46 66 1008.2
20260509191508 16 188 1.6 6.4 0.00 0.46 0.46 70 1008.3
20260509191004 17 218 4.8 4.8 0.00 0.46 0.46 68 1008.4
20260509190501 16 288 1.6 3.2 0.00 0.46 0.46 70 1008.4
20260509185959 16 202 6.4 9.7 0.00 0.46 0.46 69 1008.4
20260509185455 16 215 6.4 9.7 0.00 0.46 0.46 70 1008.6
20260509184952 16 195 6.4 6.4 0.00 0.46 0.46 71 1008.5
20260509184450 17 199 6.4 6.4 0.00 0.46 0.46 70 1008.7
20260509183946 16 278 1.6 3.2 0.00 0.46 0.46 71 1008.5
20260509183441 16 211 6.4 6.4 0.00 0.46 0.46 73 1008.6
20260509182938 16 99 3.2 4.8 0.00 0.46 0.46 74 1008.7
20260509182434 17 127 3.2 3.2 0.00 0.46 0.46 72 1008.7
20260509181931 16 180 6.4 9.7 0.00 0.46 0.46 74 1008.8
20260509181429 16 73 3.2 3.2 0.00 0.46 0.46 76 1008.9
20260509180926 15 204 3.2 4.8 0.00 0.46 0.46 75 1008.7
20260509180421 15 36 4.8 6.4 0.00 0.46 0.46 76 1008.9
20260509175919 15 21 6.4 9.7 0.00 0.46 0.46 76 1008.9
20260509175415 15 203 3.2 3.2 0.00 0.46 0.46 76 1008.9
20260509174912 15 182 8.0 9.7 0.00 0.46 0.46 77 1009.0
20260509174408 15 202 6.4 6.4 0.00 0.46 0.46 77 1008.9
20260509173904 15 344 1.6 3.2 0.00 0.46 0.46 80 1008.9
20260509173403 15 113 6.4 9.7 0.00 0.46 0.46 80 1008.9
20260509172900 15 12 1.6 1.6 0.00 0.46 0.46 79 1008.8
20260509172357 15 56 0.0 1.6 0.00 0.46 0.46 80 1008.7
20260509171853 15 176 3.2 3.2 0.00 0.46 0.46 81 1008.6
20260509171349 15 206 6.4 6.4 0.00 0.46 0.46 80 1008.8
20260509170846 15 194 4.8 4.8 0.00 0.46 0.46 80 1008.7
20260509170342 15 171 1.6 3.2 0.00 0.46 0.46 82 1008.6
20260509165842 15 343 3.2 4.8 0.00 0.46 0.46 81 1008.9
20260509165336 15 196 3.2 6.4 0.00 0.46 0.46 80 1008.6
20260509164833 15 194 8.0 11.3 0.00 0.46 0.46 83 1008.6
20260509164329 15 169 1.6 3.2 0.00 0.46 0.46 83 1008.6
20260509163825 15 210 6.4 6.4 0.00 0.46 0.46 80 1008.4
20260509163323 15 163 8.0 9.7 0.00 0.46 0.46 82 1008.6
20260509162822 15 38 1.6 1.6 0.00 0.46 0.46 85 1008.3
20260509162320 15 177 6.4 6.4 0.00 0.46 0.46 86 1008.7
20260509161816 14 229 4.8 6.4 0.00 0.46 0.46 89 1008.7
20260509161313 14 217 3.2 3.2 0.00 0.46 0.46 90 1008.9
20260509160808 14 255 3.2 3.2 0.00 0.46 0.46 92 1008.7
20260509160305 14 189 3.2 3.2 0.00 0.46 0.46 94 1008.7
20260509155800 14 193 4.8 4.8 0.00 0.46 0.46 94 1008.9
20260509155257 13 216 3.2 3.2 0.00 0.46 0.46 95 1008.5
20260509154753 12 16 1.6 3.2 0.00 0.46 0.46 95 1008.6
20260509154250 12 308 3.2 3.2 0.00 0.46 0.46 95 1008.6
20260509153747 12 309 1.6 1.6 0.00 0.46 0.46 95 1008.5
20260509153243 12 230 3.2 3.2 0.00 0.46 0.46 95 1008.7
20260509152740 12 191 3.2 4.8 0.00 0.46 0.46 95 1008.8
20260509152236 12 20 1.6 3.2 0.00 0.46 0.46 95 1008.8
20260509151733 12 287 3.2 3.2 0.00 0.46 0.46 95 1008.7
20260509151230 12 194 1.6 3.2 0.00 0.46 0.46 96 1008.6
20260509150728 12 346 3.2 3.2 0.00 0.46 0.46 95 1008.6
20260509150226 11 320 1.6 3.2 0.00 0.46 0.46 96 1008.8
20260509145723 11 313 3.2 3.2 0.00 0.46 0.46 96 1008.8
20260509145223 11 34 1.6 1.6 0.00 0.46 0.46 96 1008.8
20260509144719 12 204 3.2 3.2 0.00 0.46 0.46 96 1008.9
20260509144216 12 321 1.6 1.6 0.00 0.46 0.46 96 1008.8
20260509143714 11 247 1.6 3.2 0.00 0.46 0.46 96 1008.8
20260509143211 11 307 3.2 3.2 0.00 0.46 0.46 96 1008.7
20260509142706 11 89 1.6 1.6 0.18 0.46 0.46 96 1008.5
20260509142203 11 23 0.0 1.6 0.18 0.46 0.46 96 1008.6
20260509141659 11 52 3.2 4.8 0.00 0.43 0.43 96 1008.8
20260509141156 11 285 3.2 3.2 0.00 0.43 0.43 96 1008.7
20260509140652 11 25 3.2 4.8 0.00 0.43 0.43 96 1008.7
20260509140150 11 19 3.2 4.8 0.00 0.43 0.43 96 1008.7
20260509135647 11 62 1.6 1.6 0.00 0.43 0.43 96 1008.8
20260509135146 11 65 3.2 3.2 0.00 0.43 0.43 96 1008.7
20260509134641 11 292 1.6 3.2 0.00 0.43 0.43 96 1008.9
20260509134139 11 1 1.6 1.6 0.00 0.43 0.43 96 1008.9
20260509133636 11 27 0.0 0.0 0.00 0.43 0.43 96 1008.8
20260509133133 11 336 1.6 1.6 0.00 0.43 0.43 96 1009.0
20260509132632 11 204 1.6 3.2 0.30 0.43 0.43 96 1008.9
20260509132130 11 341 3.2 3.2 0.30 0.43 0.43 96 1009.0
20260509131625 11 38 0.0 0.0 0.00 0.38 0.38 96 1009.1
20260509131123 11 31 0.0 1.6 0.13 0.38 0.38 96 1009.0
20260509130618 11 29 1.6 3.2 0.13 0.38 0.38 96 1009.0
20260509130115 11 46 0.0 0.0 0.18 0.36 0.36 96 1009.0
20260509125611 11 37 1.6 1.6 0.48 0.36 0.36 96 1008.9
20260509125108 11 211 4.8 4.8 0.30 0.33 0.33 95 1009.0
20260509124605 11 346 0.0 1.6 0.13 0.30 0.30 95 1009.0
20260509124102 11 35 1.6 1.6 0.00 0.28 0.28 95 1009.2
20260509123600 11 77 0.0 1.6 0.18 0.28 0.28 95 1009.2
20260509123056 11 339 1.6 3.2 0.30 0.28 0.28 95 1009.2
20260509122552 11 145 3.2 4.8 0.13 0.25 0.25 95 1009.2
20260509122050 11 26 0.0 1.6 0.18 0.23 0.23 95 1009.3
20260509121546 11 193 3.2 4.8 0.18 0.23 0.23 95 1009.1
20260509121048 11 218 3.2 3.2 0.13 0.20 0.20 94 1009.3
20260509120542 11 36 0.0 0.0 0.30 0.20 0.20 94 1009.3
20260509120040 11 56 1.6 1.6 0.18 0.18 0.18 94 1009.2
20260509115536 11 311 1.6 3.2 0.00 0.15 0.15 94 1009.3
20260509115034 11 190 3.2 4.8 0.00 0.15 0.15 94 1009.2
20260509114532 11 37 1.6 1.6 0.13 0.15 0.15 93 1009.1
20260509114031 11 208 3.2 3.2 0.13 0.15 0.15 93 1009.2
20260509113529 11 194 4.8 4.8 0.13 0.15 0.15 93 1009.1
20260509113026 11 267 4.8 4.8 0.18 0.13 0.13 93 1008.9
20260509112522 11 201 3.2 3.2 0.30 0.13 0.13 92 1009.1
20260509112019 11 3 1.6 3.2 0.13 0.10 0.10 91 1009.0
20260509111517 11 203 3.2 4.8 0.18 0.08 0.08 91 1009.0
20260509111014 11 162 3.2 4.8 0.18 0.08 0.08 91 1008.9
20260509110510 11 200 3.2 4.8 0.00 0.05 0.05 92 1008.9
20260509110007 11 61 1.6 1.6 0.00 0.05 0.05 92 1008.8
20260509105506 11 197 3.2 4.8 0.00 0.05 0.05 93 1008.8
20260509105003 10 291 0.0 1.6 0.00 0.05 0.05 94 1008.7
20260509104459 10 335 1.6 1.6 0.00 0.05 0.05 94 1008.6
20260509103957 10 358 1.6 1.6 0.00 0.05 0.05 94 1008.7
20260509103454 10 274 3.2 3.2 0.00 0.05 0.05 94 1008.8
20260509102952 10 22 1.6 1.6 0.00 0.05 0.05 95 1008.8
20260509102449 10 291 3.2 3.2 0.00 0.05 0.05 95 1008.7
20260509101946 10 306 1.6 3.2 0.00 0.05 0.05 95 1009.1
20260509101442 10 37 1.6 1.6 0.00 0.05 0.05 95 1008.7
20260509100939 10 192 3.2 4.8 0.00 0.05 0.05 96 1008.8
20260509100437 10 16 0.0 1.6 0.00 0.05 0.05 96 1008.7
20260509095933 10 307 1.6 1.6 0.00 0.05 0.05 96 1008.8
20260509095430 10 317 1.6 1.6 0.00 0.05 0.05 96 1008.9
20260509094927 10 10 0.0 0.0 0.00 0.05 0.05 96 1008.7
20260509094424 10 18 0.0 0.0 0.00 0.05 0.05 96 1009.0
20260509093922 10 11 0.0 0.0 0.13 0.05 0.05 96 1009.0
20260509093419 10 13 0.0 0.0 0.13 0.05 0.05 96 1008.8
20260509092917 10 14 0.0 0.0 0.00 0.03 0.03 96 1008.9
20260509092414 10 24 0.0 0.0 0.00 0.03 0.03 96 1009.1
20260509091913 10 17 0.0 0.0 0.00 0.03 0.03 96 1009.2
20260509091409 10 20 0.0 0.0 0.18 0.03 0.03 96 1009.3
20260509090907 10 14 0.0 0.0 0.18 0.03 0.03 96 1009.3
20260509090403 10 22 0.0 0.0 0.00 0.00 0.00 96 1009.2
20260509085901 10 22 0.0 0.0 0.00 0.00 0.00 96 1009.2
20260509085358 10 22 0.0 0.0 0.00 0.00 0.00 96 1009.3
20260509084854 10 22 0.0 0.0 0.00 0.00 0.00 96 1009.4
20260509084351 10 22 0.0 0.0 0.00 0.00 0.00 96 1009.4
20260509083849 10 17 0.0 0.0 0.00 0.00 0.00 96 1009.3
20260509083346 10 13 0.0 0.0 0.00 0.00 0.00 96 1009.5
20260509082842 10 13 0.0 0.0 0.00 0.00 0.00 96 1009.6
20260509082339 10 19 0.0 0.0 0.00 0.00 0.00 96 1009.3
20260509081837 10 19 0.0 0.0 0.00 0.00 0.00 96 1009.3
20260509081333 10 19 0.0 0.0 0.00 0.00 0.00 96 1009.2
20260509080831 10 19 0.0 0.0 0.00 0.00 0.00 96 1009.2
20260509080329 10 19 0.0 0.0 0.00 0.00 0.00 96 1009.4
20260509075827 10 19 0.0 0.0 0.00 0.00 0.00 96 1009.1
20260509075324 10 20 0.0 0.0 0.00 0.00 0.00 95 1009.0
20260509074821 10 19 0.0 0.0 0.00 0.00 0.00 95 1009.2
20260509074319 9 19 0.0 0.0 0.00 0.00 0.00 95 1009.3
20260509073815 10 19 0.0 0.0 0.00 0.00 0.00 95 1009.4
20260509073311 10 19 0.0 0.0 0.00 0.00 0.00 95 1009.1
20260509072808 10 19 0.0 0.0 0.00 0.00 0.00 95 1009.0
20260509072306 10 20 0.0 0.0 0.00 0.00 0.00 95 1009.0
20260509071801 10 17 0.0 0.0 0.00 0.00 0.00 95 1009.1
20260509071258 10 11 0.0 0.0 0.00 0.00 0.00 95 1009.1
20260509070755 10 10 0.0 0.0 0.00 0.00 0.00 95 1008.9
20260509070251 10 11 0.0 0.0 0.00 0.00 0.00 95 1008.9
20260509065748 10 10 0.0 0.0 0.00 0.00 0.00 95 1009.0
20260509065244 10 11 0.0 0.0 0.00 0.00 0.00 95 1009.0
20260509064741 10 16 0.0 0.0 0.00 0.00 0.00 95 1009.2
20260509064238 10 21 0.0 0.0 0.00 0.00 0.00 95 1009.3
20260509063736 10 20 0.0 0.0 0.00 0.00 0.00 95 1009.1
20260509063232 10 19 0.0 0.0 0.00 0.00 0.00 95 1009.3
20260509062729 10 19 0.0 0.0 0.00 0.00 0.00 95 1009.5
20260509062226 10 19 0.0 0.0 0.00 0.00 0.00 95 1009.6
20260509061723 10 21 0.0 0.0 0.00 0.00 0.00 95 1009.8
20260509061221 10 19 0.0 0.0 0.00 0.00 0.00 95 1009.7
20260509060718 10 19 0.0 0.0 0.00 0.00 0.00 95 1009.6
20260509060214 10 18 0.0 0.0 0.00 0.00 0.00 95 1009.6
20260509055710 9 22 0.0 0.0 0.00 0.00 0.00 95 1009.8
20260509055206 9 25 0.0 0.0 0.00 0.00 0.00 95 1009.7
20260509054703 9 25 0.0 0.0 0.00 0.00 0.00 95 1010.1
20260509054200 9 25 0.0 0.0 0.00 0.00 0.00 95 1009.7
20260509053659 9 25 0.0 0.0 0.00 0.00 0.00 95 1010.1
20260509053155 9 26 0.0 0.0 0.00 0.00 0.00 95 1010.1
20260509052653 10 26 0.0 0.0 0.00 0.00 0.00 95 1010.2
20260509052150 10 26 0.0 0.0 0.00 0.00 0.00 95 1010.3
20260509051648 10 26 0.0 0.0 0.00 0.00 0.00 95 1010.2
20260509051145 9 20 0.0 0.0 0.00 0.00 0.00 95 1010.1
20260509050642 10 20 0.0 0.0 0.00 0.00 0.00 94 1010.3
20260509050139 10 20 0.0 0.0 0.00 0.00 0.00 94 1010.2
20260509045636 10 21 0.0 0.0 0.00 0.00 0.00 94 1010.0
20260509045133 10 21 0.0 0.0 0.00 0.00 0.00 94 1010.3
20260509044630 10 14 0.0 0.0 0.00 0.00 0.00 94 1010.4
20260509044127 10 16 0.0 0.0 0.00 0.00 0.00 94 1010.2
20260509043624 10 17 0.0 0.0 0.00 0.00 0.00 94 1010.6
20260509043119 10 17 0.0 0.0 0.00 0.00 0.00 94 1010.5
20260509042616 10 17 0.0 0.0 0.00 0.00 0.00 94 1010.6
20260509042112 10 17 0.0 0.0 0.00 0.00 0.00 94 1010.7
20260509041609 10 17 0.0 0.0 0.00 0.00 0.00 94 1010.9
20260509041106 10 22 0.0 0.0 0.00 0.00 0.00 94 1010.9
20260509040605 10 22 0.0 0.0 0.00 0.00 0.00 93 1010.8
20260509040101 10 22 0.0 0.0 0.00 0.10 0.10 93 1010.9
20260509035558 10 22 0.0 0.0 0.00 0.10 0.10 93 1010.9
20260509035055 10 22 0.0 0.0 0.00 0.10 0.10 93 1011.0
20260509034553 10 22 0.0 0.0 0.00 0.10 0.10 93 1011.2
20260509034050 10 22 0.0 0.0 0.00 0.10 0.10 93 1011.6
20260509033547 10 22 0.0 0.0 0.00 0.10 0.10 93 1011.2
20260509033043 10 22 0.0 0.0 0.00 0.10 0.10 93 1011.8
20260509032541 10 22 0.0 0.0 0.00 0.10 0.10 93 1011.6
20260509032038 10 22 0.0 0.0 0.00 0.10 0.10 93 1011.6
20260509031536 10 14 0.0 0.0 0.00 0.10 0.10 92 1011.7
20260509031033 10 14 0.0 0.0 0.00 0.10 0.10 92 1011.6
20260509030531 10 18 0.0 0.0 0.00 0.10 0.10 92 1011.7
20260509030027 10 18 0.0 0.0 0.18 0.10 0.10 92 1011.9
20260509025523 10 17 0.0 0.0 0.18 0.10 0.10 92 1012.0
20260509025019 10 22 0.0 0.0 0.00 0.08 0.08 92 1011.9
20260509024515 10 18 0.0 0.0 0.00 0.08 0.08 92 1012.0
20260509024012 10 16 0.0 0.0 0.13 0.08 0.08 91 1012.2
20260509023509 10 18 0.0 0.0 0.13 0.08 0.08 91 1012.1
20260509023006 11 28 0.0 0.0 0.00 0.05 0.05 91 1012.2
20260509022502 11 23 0.0 0.0 0.00 0.05 0.05 91 1012.3
20260509022000 11 13 0.0 0.0 0.00 0.05 0.05 91 1012.1
20260509021457 11 26 0.0 0.0 0.00 0.05 0.05 90 1011.9
20260509020954 11 22 0.0 0.0 0.00 0.05 0.05 90 1012.0
20260509020452 11 10 0.0 0.0 0.00 0.05 0.05 90 1011.7
20260509015949 11 9 0.0 0.0 0.00 0.05 0.05 90 1011.7
20260509015448 11 14 0.0 0.0 0.00 0.05 0.05 89 1011.6
20260509014944 11 12 0.0 0.0 0.00 0.05 0.05 89 1011.7
20260509014441 11 14 0.0 0.0 0.18 0.05 0.05 88 1011.3
20260509013937 11 14 0.0 0.0 0.18 0.05 0.05 88 1011.2
20260509013434 11 14 0.0 0.0 0.00 0.03 0.03 87 1011.2
20260509012930 11 13 0.0 0.0 0.00 0.03 0.03 87 1010.9
20260509012426 11 23 0.0 0.0 0.00 0.03 0.03 86 1011.0
20260509011924 11 24 0.0 0.0 0.00 0.03 0.03 86 1011.0
20260509011421 11 23 0.0 0.0 0.00 0.03 0.03 85 1010.8
20260509010919 11 24 0.0 0.0 0.00 0.03 0.03 85 1010.8
20260509010416 11 14 0.0 0.0 0.00 0.03 0.03 84 1010.7
20260509005913 11 12 0.0 0.0 0.00 0.03 0.03 84 1010.6
20260509005411 11 19 0.0 0.0 0.00 0.03 0.03 84 1010.6
20260509004911 11 8 0.0 0.0 0.00 0.03 0.03 84 1010.5
20260509004408 11 18 0.0 0.0 0.00 0.03 0.03 84 1010.4
20260509003905 11 18 0.0 0.0 0.00 0.03 0.03 84 1010.4
20260509003403 11 18 0.0 0.0 0.00 0.03 0.03 85 1010.4
20260509002900 11 18 0.0 0.0 0.00 0.03 0.03 85 1010.6
20260509002358 11 9 0.0 0.0 0.00 0.03 0.03 84 1010.4
20260509001855 12 9 0.0 0.0 0.00 0.03 0.03 84 1010.4
20260509001351 12 10 0.0 0.0 0.00 0.03 0.03 83 1010.3
20260509000848 12 9 0.0 0.0 0.00 0.03 0.03 83 1010.3
20260509000348 12 14 0.0 0.0 0.00 0.03 0.03 83 1010.1
20260508235842 12 14 0.0 0.0 0.00 0.03 0.03 83 1010.2
20260508235339 12 13 0.0 0.0 0.00 0.03 0.03 83 1010.2
20260508234836 12 14 0.0 0.0 0.00 0.03 0.03 82 1010.4
20260508234332 12 13 0.0 0.0 0.00 0.03 0.03 82 1010.5
20260508233831 12 15 0.0 0.0 0.00 0.03 0.03 81 1010.5
20260508233330 12 18 0.0 0.0 0.00 0.03 0.03 81 1010.4
20260508232826 12 18 0.0 0.0 0.00 0.03 0.03 81 1010.5
20260508232323 12 18 0.0 0.0 0.00 0.03 0.03 81 1010.7
20260508231822 12 18 0.0 0.0 0.00 0.03 0.03 80 1010.6
20260508231317 12 18 0.0 0.0 0.00 0.03 0.03 80 1010.5
20260508230814 12 18 0.0 0.0 0.00 0.03 0.03 80 1010.6
20260508230311 12 18 0.0 0.0 0.00 0.03 0.03 81 1010.5
20260508225808 12 16 0.0 0.0 0.00 0.03 0.03 80 1010.5
20260508225306 12 16 0.0 0.0 0.00 0.03 0.03 80 1010.5
20260508224803 12 22 0.0 0.0 0.00 0.03 0.03 80 1010.6
20260508224300 12 22 0.0 0.0 0.00 0.03 0.03 80 1010.5
20260508223757 12 22 0.0 0.0 0.00 0.03 0.03 81 1010.5
20260508223255 12 22 0.0 0.0 0.00 0.03 0.03 80 1010.7
20260508222752 12 22 0.0 0.0 0.00 0.03 0.03 79 1010.8
20260508222249 13 22 0.0 0.0 0.00 0.03 0.03 78 1010.8
20260508221746 13 22 0.0 0.0 0.00 0.03 0.03 77 1010.6
20260508221241 13 22 0.0 0.0 0.00 0.03 0.03 74 1010.6
20260508220737 13 21 0.0 0.0 0.00 0.03 0.03 74 1010.5
20260508220234 13 20 0.0 0.0 0.00 0.03 0.03 75 1010.7
20260508215730 13 19 0.0 0.0 0.00 0.03 0.03 74 1010.6
20260508215227 13 19 1.6 1.6 0.00 0.03 0.03 71 1010.6
20260508214725 13 19 0.0 0.0 0.00 0.03 0.03 70 1010.7
20260508214222 13 20 0.0 0.0 0.00 0.03 0.03 70 1010.7
20260508213718 13 16 0.0 0.0 0.00 0.03 0.03 71 1010.7
20260508213215 13 10 0.0 0.0 0.00 0.03 0.03 75 1010.6